sat.trackr.live / text

‹ back to catalog

KUIPER-00512

NORAD 68889 · 2026-095AB

PAYLOAD ACTIVE UNKNOWN

§ Identity

Operator
Country
US
Launch date
2026-04-28
Launch site
AFETR
Launch vehicle
Mass (kg)
RCS (m²)

External: N2YO · Heavens-Above · Gunter

§ Orbital elements

Epoch: 2026-09-20T04:22:55.128864Z

Period
97.30 min
Inclination
51.9007°
Eccentricity
0.0000900
Mean motion
14.79927814 rev/d
Perigee alt
628.9 km
Apogee alt
630.2 km
Semi-major
7,007.7 km
B*
-7.3211e-5
RAAN
188.1020°
Arg perigee
82.9914°
Mean anomaly
277.1150°
Rev number
2,171

§ Raw data

KUIPER-005121 68889U 26095AB  26263.18258251 -.00000779  00000+0 -73211-4 0  99942 68889  51.9007 188.1020 0000900  82.9914 277.1150 14.79927814 21711

JSON: /api/v1/satellites/68889 · /tle

For live sub-satellite position, see the globe view (requires WebGL).

§ Visibility from observer

Set your observer location to see the next 7 days of passes ≥ 10°. The values pass through the URL so the page stays shareable.

No JS? Fill the form by hand. The geolocation button needs JavaScript.